TimeMDT,TemperatureF,Dew PointF,Humidity,Sea Level PressureIn,VisibilityMPH,Wind Direction,Wind SpeedMPH,Gust SpeedMPH,PrecipitationIn,Events,Conditions,WindDirDegrees,DateUTC
12:54 AM,42.1,33.1,70,29.91,10.0,SSE,5.8,-,N/A,,Clear,160,2013-09-24 06:54:00
1:54 AM,37.0,32.0,82,29.93,10.0,SE,4.6,-,N/A,,Clear,130,2013-09-24 07:54:00
2:54 AM,36.0,32.0,86,29.93,10.0,SE,4.6,-,N/A,,Clear,130,2013-09-24 08:54:00
3:54 AM,37.0,32.0,82,29.93,10.0,SE,6.9,-,N/A,,Clear,130,2013-09-24 09:54:00
4:54 AM,43.0,34.0,71,29.91,10.0,SSW,10.4,-,N/A,,Clear,200,2013-09-24 10:54:00
5:54 AM,37.0,32.0,82,29.93,10.0,ESE,6.9,-,N/A,,Clear,110,2013-09-24 11:54:00
6:54 AM,42.1,33.1,70,29.93,10.0,SE,6.9,-,N/A,,Mostly Cloudy,130,2013-09-24 12:54:00
7:54 AM,42.1,34.0,73,29.94,10.0,ESE,6.9,-,N/A,,Clear,120,2013-09-24 13:54:00
8:54 AM,51.1,35.1,54,29.91,10.0,ESE,8.1,-,N/A,,Clear,110,2013-09-24 14:54:00
9:54 AM,57.9,37.0,46,29.87,10.0,Calm,Calm,-,N/A,,Clear,0,2013-09-24 15:54:00
10:54 AM,59.0,39.0,48,29.85,10.0,NNE,4.6,-,N/A,,Overcast,30,2013-09-24 16:54:00
11:54 AM,59.0,41.0,51,29.84,10.0,WNW,4.6,-,N/A,,Overcast,300,2013-09-24 17:54:00
12:54 PM,57.9,37.9,47,29.82,10.0,WNW,4.6,-,0.00,,Overcast,300,2013-09-24 18:54:00
1:54 PM,60.1,37.9,44,29.79,10.0,North,4.6,-,N/A,,Overcast,360,2013-09-24 19:54:00
2:54 PM,61.0,37.0,41,29.75,10.0,North,-9999.0,-,0.00,,Overcast,0,2013-09-24 20:54:00
3:54 PM,60.1,41.0,49,29.74,10.0,NNE,4.6,-,N/A,,Overcast,20,2013-09-24 21:54:00
4:54 PM,57.0,43.0,59,29.73,10.0,NNW,3.5,-,N/A,,Overcast,330,2013-09-24 22:54:00
5:54 PM,50.0,46.9,89,29.75,8.0,WNW,6.9,-,0.02,Rain,Light Rain,290,2013-09-24 23:54:00
6:54 PM,50.0,46.9,89,29.71,10.0,North,3.5,-,0.01,Rain,Light Rain,350,2013-09-25 00:54:00
7:54 PM,48.9,46.9,93,29.71,10.0,WNW,6.9,-,0.01,Rain,Light Rain,290,2013-09-25 01:54:00
8:54 PM,48.0,46.9,96,29.68,10.0,Calm,Calm,-,0.02,,Mostly Cloudy,0,2013-09-25 02:54:00
9:21 PM,48.2,46.4,93,29.72,10.0,WNW,9.2,-,N/A,,Scattered Clouds,290,2013-09-25 03:21:00
9:34 PM,48.2,46.4,93,29.73,10.0,NW,9.2,-,N/A,,Mostly Cloudy,310,2013-09-25 03:34:00
9:54 PM,48.0,46.9,96,29.71,10.0,West,11.5,-,N/A,,Overcast,280,2013-09-25 03:54:00
10:29 PM,46.4,44.6,93,29.77,7.0,West,12.7,-,0.07,Rain,Light Rain,280,2013-09-25 04:29:00
10:34 PM,44.6,44.6,100,29.78,10.0,West,15.0,21.9,0.07,Rain,Light Rain,280,2013-09-25 04:34:00
10:54 PM,45.0,44.1,97,29.69,9.0,NNE,9.2,-,0.09,Rain,Light Rain,20,2013-09-25 04:54:00
11:36 PM,44.6,42.8,93,29.72,10.0,WSW,9.2,-,0.00,,Mostly Cloudy,250,2013-09-25 05:36:00
11:54 PM,45.0,44.1,97,29.71,10.0,West,13.8,-,0.00,,Overcast,260,2013-09-25 05:54:00